User: anonymous   Login
Location: Bow
(51.5261°N, 0.0167°W)
Time: 15:34:07
(UTC+00:00)
Language:

SPOT 5 - Orbit

View from above orbital plane
View from above orbital plane
View from above satellite
View from above satellite

Ground track
Ground track

The orbit data is extracted from the following two-line orbital elements,

1 27421U 02021A   20339.82173719  .00000090  00000-0  30747-4 0  9990
2 27421  98.2561  47.9978 0136140  42.0816 319.0736 14.52066209969478
Epoch (UTC): 04 December 2020 19:43:18
Eccentricity: 0.0136140
inclination: 98.2561°
perigee height: 622 km
apogee height: 815 km
right ascension of ascending node: 47.9978°
argument of perigee: 42.0816°
revolutions per day: 14.52066209
mean anomaly at epoch: 319.0736°
orbit number at epoch: 96947

The dashed part of the orbit path shows where the satellite is in the earth's shadow,  

DLR